Time,TemperatureF,DewpointF,PressureIn,WindDirection,WindDirectionDegrees,WindSpeedMPH,WindSpeedGustMPH,Humidity,HourlyPrecipIn,Conditions,Clouds,dailyrainin,SolarRadiationWatts/m^2,SoftwareType,DateUTC
2013-09-16 00:04:00,56.0,52.0,-100.00,ENE,63,3.0,8.0,87,0.00,,,0.43,0.000000,,2013-09-16 05:04:00,
2013-09-16 00:44:00,55.0,52.0,-100.00,NE,46,3.0,6.0,91,0.00,,,0.43,0.000000,,2013-09-16 05:44:00,
2013-09-16 00:53:00,55.0,52.0,-100.00,NE,46,3.0,6.0,91,0.00,,,0.43,0.000000,,2013-09-16 05:53:00,
2013-09-16 01:03:00,55.0,52.0,-100.00,NE,46,3.0,6.0,91,0.00,,,0.43,0.000000,,2013-09-16 06:03:00,
2013-09-16 01:43:00,54.0,52.0,-100.00,NE,39,0.0,7.0,94,0.00,,,0.43,0.000000,,2013-09-16 06:43:00,
2013-09-16 01:52:00,54.0,52.0,-100.00,NE,39,0.0,7.0,94,0.00,,,0.43,0.000000,,2013-09-16 06:52:00,
2013-09-16 02:02:00,54.0,52.0,-100.00,NE,39,0.0,7.0,94,0.00,,,0.43,0.000000,,2013-09-16 07:02:00,
2013-09-16 02:43:00,53.0,52.0,-100.00,NE,36,3.0,6.0,96,0.00,,,0.43,0.000000,,2013-09-16 07:43:00,
2013-09-16 02:52:00,53.0,52.0,-100.00,NE,36,3.0,6.0,96,0.00,,,0.43,0.000000,,2013-09-16 07:52:00,
2013-09-16 03:02:00,53.0,52.0,-100.00,NE,36,3.0,6.0,96,0.00,,,0.43,0.000000,,2013-09-16 08:02:00,
2013-09-16 03:42:00,52.0,51.0,-100.00,NNE,32,3.0,5.0,98,0.00,,,0.43,0.000000,,2013-09-16 08:42:00,
2013-09-16 03:52:00,52.0,51.0,-100.00,NNE,32,3.0,5.0,98,0.00,,,0.43,0.000000,,2013-09-16 08:52:00,
2013-09-16 04:02:00,52.0,51.0,-100.00,NNE,32,3.0,5.0,98,0.00,,,0.43,0.000000,,2013-09-16 09:02:00,
2013-09-16 04:43:00,52.0,51.0,-100.00,NE,45,4.0,8.0,98,0.00,,,0.43,0.000000,,2013-09-16 09:43:00,
2013-09-16 04:53:00,52.0,51.0,-100.00,NE,45,4.0,8.0,98,0.00,,,0.43,0.000000,,2013-09-16 09:53:00,
2013-09-16 05:03:00,52.0,51.0,-100.00,NE,45,4.0,8.0,98,0.00,,,0.43,0.000000,,2013-09-16 10:03:00,
2013-09-16 05:42:00,52.0,52.0,-100.00,NE,56,4.0,8.0,99,0.00,,,0.43,0.000000,,2013-09-16 10:42:00,
2013-09-16 05:53:00,52.0,52.0,-100.00,NE,56,4.0,8.0,99,0.00,,,0.43,0.000000,,2013-09-16 10:53:00,
2013-09-16 06:02:00,52.0,52.0,-100.00,NE,56,4.0,8.0,99,0.00,,,0.43,0.000000,,2013-09-16 11:02:00,
2013-09-16 06:42:00,52.0,52.0,-100.00,ENE,74,3.0,9.0,100,0.01,,,0.27,0.000000,,2013-09-16 11:42:00,
2013-09-16 06:52:00,52.0,52.0,-100.00,ENE,74,3.0,9.0,100,0.01,,,0.27,0.000000,,2013-09-16 11:52:00,
2013-09-16 07:01:00,52.0,52.0,-100.00,ENE,74,3.0,9.0,100,0.01,,,0.27,0.000000,,2013-09-16 12:01:00,
2013-09-16 07:42:00,52.0,52.0,-100.00,ENE,64,5.0,9.0,100,0.00,,,0.13,3.000000,,2013-09-16 12:42:00,
2013-09-16 07:52:00,52.0,52.0,-100.00,ENE,64,5.0,9.0,100,0.00,,,0.13,3.000000,,2013-09-16 12:52:00,
2013-09-16 08:02:00,52.0,52.0,-100.00,ENE,64,5.0,9.0,100,0.00,,,0.13,3.000000,,2013-09-16 13:02:00,
2013-09-16 08:42:00,53.0,52.0,-100.00,ENE,69,7.0,13.0,98,0.00,,,0.01,48.000000,,2013-09-16 13:42:00,
2013-09-16 08:52:00,53.0,52.0,-100.00,ENE,69,7.0,13.0,98,0.00,,,0.01,48.000000,,2013-09-16 13:52:00,
2013-09-16 09:02:00,53.0,52.0,-100.00,ENE,69,7.0,13.0,98,0.00,,,0.01,48.000000,,2013-09-16 14:02:00,
2013-09-16 09:42:00,55.0,54.0,-100.00,ENE,76,7.0,12.0,96,0.00,,,0.01,90.000000,,2013-09-16 14:42:00,
2013-09-16 09:52:00,55.0,54.0,-100.00,ENE,76,7.0,12.0,96,0.00,,,0.01,90.000000,,2013-09-16 14:52:00,
2013-09-16 10:02:00,55.0,54.0,-100.00,ENE,76,7.0,12.0,96,0.00,,,0.01,90.000000,,2013-09-16 15:02:00,
2013-09-16 10:43:00,56.0,54.0,-100.00,East,89,6.0,17.0,94,0.00,,,0.01,72.000000,,2013-09-16 15:43:00,
2013-09-16 10:53:00,56.0,54.0,-100.00,East,89,6.0,17.0,94,0.00,,,0.01,72.000000,,2013-09-16 15:53:00,
2013-09-16 11:03:00,56.0,54.0,-100.00,East,89,6.0,17.0,94,0.00,,,0.01,72.000000,,2013-09-16 16:03:00,
2013-09-16 11:43:00,56.0,54.0,-100.00,East,91,8.0,13.0,92,0.00,,,0.01,98.000000,,2013-09-16 16:43:00,
2013-09-16 11:52:00,56.0,54.0,-100.00,East,91,8.0,13.0,92,0.00,,,0.01,98.000000,,2013-09-16 16:52:00,
2013-09-16 12:03:00,56.0,54.0,-100.00,East,91,8.0,13.0,92,0.00,,,0.01,98.000000,,2013-09-16 17:03:00,
2013-09-16 12:43:00,57.0,54.0,-100.00,ENE,73,5.0,14.0,89,0.00,,,0.01,159.000000,,2013-09-16 17:43:00,
2013-09-16 12:53:00,57.0,54.0,-100.00,ENE,73,5.0,14.0,89,0.00,,,0.01,159.000000,,2013-09-16 17:53:00,
2013-09-16 13:02:00,57.0,54.0,-100.00,ENE,73,5.0,14.0,89,0.00,,,0.01,159.000000,,2013-09-16 18:02:00,
2013-09-16 13:42:00,58.0,54.0,-100.00,ENE,73,6.0,12.0,86,0.00,,,0.01,130.000000,,2013-09-16 18:42:00,
2013-09-16 13:52:00,58.0,54.0,-100.00,ENE,73,6.0,12.0,86,0.00,,,0.01,130.000000,,2013-09-16 18:52:00,
2013-09-16 14:01:00,58.0,54.0,-100.00,ENE,73,6.0,12.0,86,0.00,,,0.01,130.000000,,2013-09-16 19:01:00,
2013-09-16 14:42:00,62.0,54.0,-100.00,East,97,6.0,11.0,75,0.00,,,0.01,321.000000,,2013-09-16 19:42:00,
2013-09-16 14:53:00,62.0,54.0,-100.00,East,97,6.0,11.0,75,0.00,,,0.01,321.000000,,2013-09-16 19:53:00,
2013-09-16 15:03:00,62.0,54.0,-100.00,East,97,6.0,11.0,75,0.00,,,0.01,321.000000,,2013-09-16 20:03:00,
2013-09-16 15:43:00,62.0,54.0,-100.00,East,79,6.0,13.0,76,0.00,,,0.01,248.000000,,2013-09-16 20:43:00,
2013-09-16 15:52:00,62.0,54.0,-100.00,East,79,6.0,13.0,76,0.00,,,0.01,248.000000,,2013-09-16 20:52:00,
2013-09-16 16:03:00,62.0,54.0,-100.00,East,79,6.0,13.0,76,0.00,,,0.01,248.000000,,2013-09-16 21:03:00,
2013-09-16 16:44:00,63.0,53.0,-100.00,East,94,6.0,11.0,70,0.00,,,0.01,259.000000,,2013-09-16 21:44:00,
2013-09-16 16:56:00,63.0,53.0,-100.00,East,94,6.0,11.0,70,0.00,,,0.01,259.000000,,2013-09-16 21:56:00,
2013-09-16 17:04:00,63.0,53.0,-100.00,East,94,6.0,11.0,70,0.00,,,0.01,259.000000,,2013-09-16 22:04:00,
2013-09-16 17:43:00,65.0,54.0,-100.00,ESE,107,6.0,11.0,67,0.00,,,0.01,275.000000,,2013-09-16 22:43:00,
2013-09-16 17:54:00,65.0,54.0,-100.00,ESE,107,6.0,11.0,67,0.00,,,0.01,275.000000,,2013-09-16 22:54:00,
2013-09-16 18:02:00,65.0,54.0,-100.00,ESE,107,6.0,11.0,67,0.00,,,0.01,275.000000,,2013-09-16 23:02:00,
2013-09-16 18:43:00,62.0,51.0,-100.00,SE,125,5.0,13.0,68,0.00,,,0.01,160.000000,,2013-09-16 23:43:00,
2013-09-16 18:53:00,62.0,51.0,-100.00,SE,125,5.0,13.0,68,0.00,,,0.01,160.000000,,2013-09-16 23:53:00,
2013-09-16 19:02:00,62.0,51.0,-100.00,SE,125,5.0,13.0,68,0.00,,,0.01,160.000000,,2013-09-17 00:02:00,
2013-09-16 19:42:00,61.0,52.0,-100.00,ESE,102,4.0,11.0,71,0.00,,,0.01,33.000000,,2013-09-17 00:42:00,
2013-09-16 19:52:00,61.0,52.0,-100.00,ESE,102,4.0,11.0,71,0.00,,,0.01,33.000000,,2013-09-17 00:52:00,
2013-09-16 20:02:00,61.0,52.0,-100.00,ESE,102,4.0,11.0,71,0.00,,,0.01,33.000000,,2013-09-17 01:02:00,
2013-09-16 20:42:00,58.0,52.0,-100.00,East,98,3.0,8.0,81,0.00,,,0.01,2.000000,,2013-09-17 01:42:00,
2013-09-16 20:52:00,58.0,52.0,-100.00,East,98,3.0,8.0,81,0.00,,,0.01,2.000000,,2013-09-17 01:52:00,
2013-09-16 21:03:00,58.0,52.0,-100.00,East,98,3.0,8.0,81,0.00,,,0.01,2.000000,,2013-09-17 02:03:00,
2013-09-16 21:42:00,55.0,52.0,-100.00,East,80,2.0,5.0,91,0.00,,,0.01,0.000000,,2013-09-17 02:42:00,
2013-09-16 21:52:00,55.0,52.0,-100.00,East,80,2.0,5.0,91,0.00,,,0.01,0.000000,,2013-09-17 02:52:00,
2013-09-16 22:02:00,55.0,52.0,-100.00,East,80,2.0,5.0,91,0.00,,,0.01,0.000000,,2013-09-17 03:02:00,
2013-09-16 22:45:00,54.0,52.0,-100.00,East,88,2.0,5.0,94,0.00,,,0.01,0.000000,,2013-09-17 03:45:00,
2013-09-16 22:54:00,54.0,52.0,-100.00,East,88,2.0,5.0,94,0.00,,,0.01,0.000000,,2013-09-17 03:54:00,
2013-09-16 23:04:00,54.0,52.0,-100.00,East,88,2.0,5.0,94,0.00,,,0.01,0.000000,,2013-09-17 04:04:00,
2013-09-16 23:44:00,53.0,52.0,-100.00,ENE,77,2.0,3.0,97,0.00,,,0.01,0.000000,,2013-09-17 04:44:00,
2013-09-16 23:54:00,53.0,52.0,-100.00,ENE,77,2.0,3.0,97,0.00,,,0.01,0.000000,,2013-09-17 04:54:00,